Location: Sissinghurst
(51.1000°N, 0.5667°E)
Time: 16:14:38
(UTC+00:00)

Daily predictions for brighter satellites

Satellite Brightness Start Highest point End
(mag) Time Altitude Azimuth Time Altitude Azimuth Time Altitude Azimuth
CZ-2C R/B 4.3 16:27:42 10° ENE 16:29:13 11° E 16:30:44 10° E
Cosmos 1842 Rocket 3.7 16:24:57 10° S 16:29:25 86° W 16:33:57 10° N
Cosmos 2219 Rocket 4.0 16:27:14 10° N 16:29:42 13° NNE 16:32:10 10° NE
SL-24 R/B - RUBIN 2 3.7 16:25:22 10° NW 16:29:59 85° SW 16:34:19 10° SE
Meteor 1-25 Rocket 4.2 16:24:35 10° N 16:30:10 72° ENE 16:35:47 10° SSE
Nadezhda 4 Rocket 4.2 16:25:05 10° N 16:31:27 86° W 16:37:48 10° S
Cosmos 1500 3.7 16:30:09 10° N 16:33:39 36° ENE 16:37:07 10° SE
H-2A R/B 4.2 16:30:13 10° S 16:33:41 40° W 16:37:10 10° NNW
Cosmos 1606 3.6 16:30:12 10° SSW 16:33:53 50° WNW 16:37:37 10° N
CZ-4B R/B 2.8 16:30:12 10° SSE 16:34:01 55° ENE 16:37:41 10° N
Cosmos 1464 Rocket 4.3 16:27:51 10° SSW 16:34:14 80° W 16:40:39 10° N
Cosmos 44 Rocket 3.5 16:29:46 10° NW 16:34:36 48° NE 16:39:16 10° ESE
COSMOS 2406 3.3 16:35:43 10° SSW 16:41:22 64° ESE 16:47:03 10° NE
Cosmos 468 Rocket 4.0 16:37:26 10° SSW 16:42:37 89° ESE 16:47:53 10° NNE
Meteor 1-31 Rocket 4.3 16:42:18 10° S 16:45:54 40° W 16:49:34 10° NNW
Cosmos 1428 Rocket 4.5 16:40:35 10° N 16:46:43 69° ENE 16:52:51 10° SSE
Cosmos 1092 Rocket 4.0 16:45:27 10° N 16:51:51 83° ENE 16:58:11 10° S
CZ-4B R/B 3.8 16:50:23 10° ESE 16:55:01 31° ENE 16:59:37 10° N
Meteor 2-21 4.4 16:49:20 10° N 16:55:27 70° ENE 17:01:28 10° SSE
USA 267 3.9 16:50:26 10° ENE 16:56:31 43° SE 17:02:39 10° SSW
CZ-2D R/B 3.9 16:53:39 10° SE 16:57:04 32° ENE 17:00:29 10° N
ATLAS CENTAUR R/B 3.0 16:47:59 10° SW 16:57:56 73° SE 17:01:31 14° ENE
Cosmos 1939 Rocket 2.8 16:55:36 10° SSE 16:59:40 69° ENE 17:03:42 10° N
USA 306 2.9 16:55:36 10° WNW 16:59:51 68° NNE 17:03:51 11° E
Cosmos 1633 Rocket 3.4 16:56:26 10° N 17:00:35 40° ENE 17:04:44 10° SE
COSMO-SKYMED 1 4.1 16:59:10 14° ENE 17:00:51 16° E 17:03:36 10° SE
Cosmos 1151 Rocket 3.7 16:58:19 10° SSE 17:02:15 34° E 17:06:13 10° NNE
Cosmos 1666 2.9 16:58:50 10° N 17:02:25 42° ENE 17:05:57 10° SSE
Cosmos 2360 Rocket 3.2 16:59:24 10° NNW 17:04:05 26° NE 17:08:17 12° E
Cosmos 1782 2.8 17:00:19 10° S 17:04:15 62° E 17:08:12 10° NNE
ISS -1.1 17:02:25 10° W 17:05:08 22° SW 17:07:51 10° SSE
SeaSat 1 3.6 17:03:39 10° NNE 17:08:13 38° NW 17:12:44 10° WSW
SL-08 R/B 3.5 17:03:58 10° NNE 17:08:40 74° WNW 17:13:17 10° SSW
Cosmos 1763 Rocket 4.1 17:04:00 10° SW 17:09:00 56° WNW 17:14:06 10° NNE
PAYLOAD B 4.4 17:04:23 10° SE 17:09:49 54° ENE 17:15:15 10° N
Cosmos 1818 3.5 17:04:40 10° NW 17:10:12 80° NE 17:15:40 10° SE
YAOGAN 1 4.2 17:11:21 15° NE 17:11:21 15° NE 17:13:26 10° NNE
Meteor 2-14 Rocket 4.5 17:08:36 10° NNW 17:14:44 86° W 17:20:49 10° S
ATLAS 5 CENTAUR R/B 2.6 17:07:55 10° NW 17:17:10 57° NNE 17:19:38 17° ESE
Cosmos 1536 4.4 17:14:44 10° NNE 17:16:30 17° NE 17:16:30 17° NE
Cosmos 2279 Rocket 4.1 17:12:21 10° SSE 17:18:20 53° E 17:24:21 10° NNE
Cosmos 841 Rocket 3.4 17:14:02 10° SSW 17:19:12 88° ESE 17:24:23 10° NNE
Cosmos 2266 Rocket 4.4 17:13:29 10° N 17:19:31 41° ENE 17:25:32 10° SE
ERBS 3.4 17:16:47 10° WNW 17:19:36 27° N 17:20:46 22° NE
USA 307 2.8 17:16:11 10° WNW 17:20:27 74° NNE 17:23:32 18° E
CZ-4C R/B 3.3 17:13:59 10° NW 17:21:03 72° SW 17:29:23 10° SSE
Lacrosse 5 rocket 1.6 17:19:40 10° WNW 17:23:32 65° SW 17:27:35 10° SE
NOSS 3-4 (A) 4.4 17:18:44 10° NW 17:24:38 35° NNE 17:28:52 19° ENE
NOSS 3-4 (C) 4.4 17:18:49 10° NW 17:24:44 35° NNE 17:28:56 19° ENE
ATLAS 2AS CENTAUR R/B 3.8 17:20:21 10° WNW 17:27:01 31° N 17:31:18 18° NE
Cosmos 2322 Rocket 2.5 17:21:44 10° NNW 17:27:15 46° NE 17:32:44 10° SE
Cosmos 1933 Rocket 4.2 17:23:46 10° N 17:27:38 30° ENE 17:31:28 10° SE
COSMOS 2428 4.2 17:23:45 10° NNW 17:27:39 18° NNE 17:28:43 17° NE
Cosmos 2208 Rocket 4.3 17:23:30 10° S 17:28:42 50° ESE 17:32:51 16° NE
Cosmos 2150 Rocket 4.0 17:24:05 10° NNW 17:29:14 59° ENE 17:34:24 10° SE
Cosmos 1666 Rocket 3.5 17:25:45 10° N 17:30:13 89° W 17:34:37 10° S
Cosmos 1980 Rocket 3.2 17:25:00 10° NW 17:30:26 49° WSW 17:35:49 10° S
AQUARIUS 4.3 17:26:32 10° S 17:31:01 77° WSW 17:35:32 10° NNW
USA 234 3.3 17:25:24 10° ESE 17:31:58 82° SSW 17:38:32 10° WNW
Cosmos 1328 Rocket 3.8 17:27:59 10° SSE 17:32:15 49° E 17:36:01 13° NNE
Cosmos 1470 Rocket 3.7 17:29:26 10° N 17:33:49 52° ENE 17:38:10 10° SSE
Cosmos 1544 3.5 17:30:32 10° N 17:33:55 37° ENE 17:37:19 10° SE
Cosmos 1125 Rocket 3.5 17:30:14 10° NNW 17:35:28 62° ENE 17:40:41 10° SE
CORIOLIS 4.5 17:31:10 10° S 17:36:34 72° WSW 17:42:02 10° NNW
X-37B 3.0 17:36:45 10° S 17:37:29 11° SSE 17:37:49 11° SSE
Cosmos 1812 2.6 17:34:11 10° S 17:38:02 87° E 17:41:44 11° N
PSLV R/B 3.7 17:35:23 10° SSE 17:39:05 83° WSW 17:42:53 10° NNW
H-2A R/B 1.9 17:34:48 10° SSE 17:39:54 80° ENE 17:44:54 10° NNW
Cosmos 1634 Rocket 4.2 17:34:27 10° SSW 17:40:47 75° WNW 17:47:09 10° N
Meteor 1-11 Rocket 3.9 17:35:21 10° N 17:40:50 50° ENE 17:46:25 10° SSE
Okean O Rocket 1.8 17:37:24 10° SE 17:41:42 49° ENE 17:46:00 10° N
Meteor 2-8 Rocket 4.5 17:36:13 10° S 17:42:15 60° E 17:48:19 10° NNE
Meteor 1-10 Rocket 4.5 17:36:56 10° SSE 17:42:22 46° E 17:47:12 13° NNE
ATLAS CENTAUR R/B 3.7 17:39:53 10° NW 17:42:39 15° N 17:44:13 13° NNE
USA 308 2.8 17:38:53 10° WNW 17:43:10 87° NNE 17:45:21 28° ESE
GEOS 3 Rocket 4.2 17:41:55 26° ENE 17:44:01 37° NNE 17:48:45 10° NW
SL-16 R/B 2.1 17:42:16 10° NNW 17:47:58 76° ENE 17:53:39 10° SE
Cosmos 2237 Rocket 4.0 17:46:10 10° N 17:48:54 13° NNE 17:49:04 13° NNE
SKYMED 2 3.9 17:47:47 31° NE 17:49:20 43° E 17:53:29 10° S
Cosmos 540 Rocket 4.5 17:46:22 10° SW 17:51:14 44° WNW 17:56:07 10° NNE
ARGOS 3.1 17:46:27 10° SSE 17:51:48 65° ENE 17:57:09 10° N
Cosmos 2082 Rocket 2.5 17:46:44 10° SW 17:52:23 68° WNW 17:56:57 16° NNE
SMAP 4.4 17:51:00 10° SSW 17:55:23 41° W 17:59:49 10° NNW
CZ-4 R/B 3.6 17:58:56 12° N 17:58:56 12° N 17:59:20 10° N
deb Chang Zheng 4 3.4 17:52:56 10° SSE 17:57:14 77° ENE 18:01:34 10° NNW
COSMOS 2455 3.3 17:54:44 10° SW 18:00:41 59° NW 18:04:54 20° NNE
Cosmos 1833 Rocket 4.1 18:00:59 10° WSW 18:06:02 33° NW 18:10:35 12° NNE
Feng Yun 1-1 Rocket 4.3 18:00:57 10° SE 18:06:44 60° ENE 18:12:27 10° N
USA 305 3.0 18:03:13 10° WNW 18:07:28 69° SSW 18:08:52 40° SE
Cosmos 2333 Rocket 2.8 18:02:26 10° NNW 18:07:45 36° NE 18:08:05 36° NE
Cosmos 1356 Rocket 3.3 18:04:18 10° N 18:08:32 79° ENE 18:12:47 10° SSE
CZ-2C R/B 2.4 18:06:50 20° NNE 18:10:31 71° ESE 18:15:40 10° S
SL-16 R/B 4.3 18:09:18 10° N 18:10:53 11° NNE 18:11:02 11° NNE
Cosmos 2219 Rocket 3.0 18:10:25 10° NNW 18:15:05 33° NE 18:15:05 33° NE
Cosmos 1655 Rocket 4.0 18:09:56 10° N 18:16:22 85° W 18:22:43 10° S
Aureole 3 Rocket 3.7 18:14:01 10° SSE 18:18:41 56° E 18:25:17 10° NNE
Cosmos 1515 Rocket 3.4 18:14:56 10° S 18:19:22 80° E 18:20:26 51° NNE
Cosmos 921 Rocket 3.0 18:17:35 10° SSW 18:21:49 79° WNW 18:22:47 52° N
Spot 2 4.4 18:23:28 25° SSE 18:26:25 68° ENE 18:31:27 10° N
Cosmos 371 Rocket 3.6 18:29:57 10° NNW 18:33:50 52° N 18:33:50 52° N
CZ-4B R/B 4.0 18:30:10 10° S 18:35:23 50° W 18:40:34 10° NNW
Cosmos 2333 4.3 18:30:03 10° NNW 18:35:33 55° NE 18:35:33 55° NE
COSMO-SKYMED 1 2.8 18:36:23 47° N 18:37:29 67° WNW 18:41:46 10° SSW
USA 306 3.6 18:35:34 10° WNW 18:39:40 48° SSW 18:39:52 47° SSW
USA 267 3.2 18:37:47 47° NE 18:39:54 82° NNW 18:46:27 10° WSW
Landsat 5 4.4 18:41:37 38° SSW 18:41:37 38° SSW 18:44:05 10° SSW
Meteor 2-15 Rocket 4.5 18:37:59 10° SSW 18:44:06 78° W 18:50:07 11° N
Meteor 1-27 Rocket 3.5 18:39:49 10° S 18:45:20 87° E 18:46:30 58° NNE
YAOGAN 1 3.9 18:48:30 30° NNW 18:48:30 30° NNW 18:50:45 10° NNW
Cosmos 836 Rocket 4.4 18:42:51 10° SSW 18:48:10 90° SSW 18:48:20 84° NNE
Cosmos 2360 Rocket 2.1 18:43:05 10° NNW 18:48:47 83° WSW 18:50:08 54° SSE
USA 307 4.2 18:56:13 10° WNW 18:59:35 37° WSW 18:59:35 37° WSW
Lacrosse 5 rocket 4.2 19:00:01 10° W 19:02:02 14° SW 19:04:06 10° SSW
Cosmos 2322 Rocket 3.5 19:06:00 10° NW 19:11:14 39° WSW 19:16:28 10° S
COSMOS 2428 3.8 19:07:30 10° NNW 19:10:45 33° N 19:10:45 33° N
NOSS 3-4 (A) 3.7 19:09:41 10° NW 19:16:20 77° NNE 19:16:20 77° NNE
NOSS 3-4 (C) 3.7 19:09:48 10° NW 19:16:23 77° NNE 19:16:23 77° NNE
Okean O Rocket 3.9 19:14:45 10° SW 19:18:17 23° W 19:21:51 10° NW
ATLAS 2AS CENTAUR R/B 3.3 19:12:29 10° NW 19:18:44 46° N 19:18:44 46° N
Cosmos 1867 4.3 19:15:12 10° SW 19:19:10 49° SW 19:19:10 49° SW
GEOS 3 Rocket 4.3 19:23:02 52° WNW 19:23:02 52° WNW 19:27:03 10° NW
ATLAS CENTAUR R/B 4.2 19:19:35 10° NNW 19:20:20 13° NNW 19:20:20 13° NNW
ATLAS CENTAUR R/B 4.2 19:24:10 10° W 19:27:07 23° WNW 19:27:07 23° WNW
SL-16 R/B 4.5 19:27:18 10° NW 19:31:28 21° W 19:35:39 10° SSW
Cosmos 2237 Rocket 4.3 19:29:29 10° NNW 19:30:53 17° NNW 19:30:53 17° NNW
Cosmos 2082 Rocket 4.2 19:33:30 10° W 19:37:34 20° NW 19:38:48 18° NNW
Cosmos 2333 Rocket 3.6 19:46:40 10° NW 19:50:07 35° NW 19:50:07 35° NW
Cosmos 2219 Rocket 3.9 19:54:16 10° NW 19:56:49 27° NW 19:56:49 27° NW
USA 267 4.5 20:25:08 36° WNW 20:25:08 36° WNW 20:28:59 10° W
